Flag for U.S.A. Weather past 2 weeks in Narragansett, Rhode Island, U.S.A.

Now
50 °F

Overcast.


Feels Like: 45 °F
Forecast: 44 / 56 °F
Wind: 13 mph from Northeast

Location: Newport State Airport

Current Time: Apr 27, 2015 at 8:42:24 PM

Latest Report: Apr 27, 2015 at 7:53 PM


Visibility: 10 mi

Pressure: 29.58 "Hg

Humidity: 68%

Dew point: 40 °F

Location of NarragansettLocation

Historic Weather in Narragansett — Graph

°F

Narragansett temperature yesterday

Maximum temperature yesterday: 54 °F (at 10:53 AM)
Minimum temperature yesterday: 35 °F (at 4:53 AM)
Average temperature yesterday: 47 °F

Past Weeks' High & Low Weather Summary

 TemperatureHumidityPressure
High68 °F (Apr 15, 3:53 PM)100% (Apr 17, 1:01 PM)30.49 "Hg (Apr 17, 1:01 PM)
Low34 °F (Apr 25, 4:53 AM)16% (Apr 15, 2:53 PM)29.52 "Hg (Apr 27, 3:53 PM)
Average49 °F64%29.93 "Hg
* Reported Apr 12 6:53 PM — Apr 27 6:53 PM, Narragansett, Weather by CustomWeather, © 2015

Note: Actual official high and low records may vary slightly from our data, if they occured in-between our weather recording intervals... More about our weather records

Advertising

Narragansett weather history for previous 24 hours

 ConditionsComfort  
Time TempWeatherWind HumidityBarometerVisibility
6:53 PM
Mon, Apr 27
53 °FOvercast.13 mph55%29.56 "Hg10 mi
5:53 PM55 °FOvercast.12 mph47%29.54 "Hg10 mi
4:53 PM56 °FOvercast.12 mph46%29.53 "Hg10 mi
3:53 PM56 °FMostly cloudy.13 mph47%29.52 "Hg10 mi
2:53 PM58 °FMostly cloudy.14 mph44%29.53 "Hg10 mi
1:53 PM56 °FMostly cloudy.10 mph44%29.54 "Hg10 mi
12:53 PM57 °FBroken clouds.6 mph46%29.56 "Hg10 mi
11:53 AM56 °FOvercast.8 mph47%29.57 "Hg10 mi
10:53 AM54 °FOvercast.10 mph51%29.59 "Hg10 mi
9:53 AM52 °FOvercast.12 mph55%29.59 "Hg10 mi
8:53 AM52 °FOvercast.14 mph55%29.60 "Hg10 mi
7:53 AM50 °FOvercast.8 mph57%29.60 "Hg10 mi
6:53 AM48 °FOvercast.6 mph63%29.60 "Hg10 mi
5:53 AM47 °FOvercast.6 mph64%29.59 "Hg10 mi
4:53 AM47 °FOvercast.7 mph66%29.58 "Hg10 mi
3:53 AM48 °FOvercast.5 mph63%29.59 "Hg10 mi
2:53 AM47 °FOvercast.5 mph69%29.60 "Hg10 mi
1:53 AM47 °FOvercast.3 mph66%29.61 "Hg10 mi
12:53 AM48 °FMostly cloudy.3 mph63%29.61 "Hg10 mi
11:53 PM
Sun, Apr 26
47 °FOvercast.No wind71%29.61 "Hg10 mi
10:53 PM46 °FOvercast.No wind77%29.61 "Hg10 mi
9:53 PM46 °FOvercast.No wind77%29.62 "Hg10 mi
8:53 PM46 °FOvercast.No wind73%29.62 "Hg10 mi
Weather by CustomWeather, © 2015

See weather overviewHow to use our weather pages